BAW8XM VNKT-VIDP

Flight info

Callsign BAW8XM
Flight time 1h 21m
Altitude 30000
Route DARKE1F NARAN L626 HW HW7B
Aircraft B77W/H-SDE1E3FGHIJ3J4J5J6M1M2P2RWXYZ/LB1D1

Departure

Time 2025-12-30 01:55
Airport Tribhuvan International Airport (VNKT)

Arrival

Time 2025-12-30 03:17
Airport Indira Gandhi International Airport (VIDP)
Time Latitude Longitude Altitude Speed Heading
2025-12-30 01:15 27.69872 85.35801 4402 ft 0 kts 292°
2025-12-30 01:41 27.69853 85.35856 4402 ft 3 kts 276°
2025-12-30 01:42 27.69858 85.35885 4402 ft 3 kts 216°
2025-12-30 01:42 27.69892 85.35901 4402 ft 2 kts 201°
2025-12-30 01:43 27.69896 85.35903 4402 ft 0 kts 202°
2025-12-30 01:47 27.69880 85.35896 4402 ft 8 kts 202°
2025-12-30 01:47 27.69772 85.35846 4402 ft 9 kts 202°
2025-12-30 01:48 27.69654 85.35792 4403 ft 10 kts 202°
2025-12-30 01:48 27.69505 85.35725 4401 ft 12 kts 201°
2025-12-30 01:48 27.69422 85.35687 4399 ft 13 kts 202°
2025-12-30 01:49 27.69161 85.35568 4391 ft 10 kts 202°
2025-12-30 01:50 27.69061 85.35604 4395 ft 8 kts 135°
2025-12-30 01:50 27.68946 85.35589 4396 ft 10 kts 202°
2025-12-30 01:51 27.68761 85.35504 4393 ft 17 kts 202°
2025-12-30 01:51 27.68547 85.35406 4400 ft 17 kts 202°
2025-12-30 01:52 27.68348 85.35313 4404 ft 13 kts 214°
2025-12-30 01:52 27.68287 85.35240 4405 ft 12 kts 229°
2025-12-30 01:52 27.68184 85.35208 4405 ft 5 kts 97°
2025-12-30 01:53 27.68281 85.35286 4406 ft 20 kts 22°
2025-12-30 01:54 27.69445 85.35817 4400 ft 159 kts 22°
2025-12-30 01:54 27.72923 85.37642 5936 ft 199 kts 44°
2025-12-30 01:55 27.74097 85.40817 6673 ft 242 kts 90°
2025-12-30 01:55 27.73611 85.44657 8029 ft 255 kts 118°
2025-12-30 01:56 27.72508 85.46182 8796 ft 257 kts 143°
2025-12-30 01:56 27.69101 85.47164 10175 ft 264 kts 191°
2025-12-30 01:57 27.65759 85.45438 11613 ft 268 kts 227°
2025-12-30 01:57 27.63691 85.40022 14727 ft 252 kts 274°
2025-12-30 01:58 27.64699 85.36193 16304 ft 264 kts 292°
2025-12-30 01:58 27.66309 85.32033 16968 ft 318 kts 292°
2025-12-30 01:59 27.68215 85.27047 17670 ft 367 kts 292°
2025-12-30 01:59 27.69233 85.24364 18447 ft 377 kts 292°
2025-12-30 02:00 27.71306 85.18887 20425 ft 378 kts 292°
2025-12-30 02:00 27.73367 85.13428 22516 ft 379 kts 293°
2025-12-30 02:01 27.75303 85.07902 24190 ft 384 kts 286°
2025-12-30 02:03 27.73340 84.83214 30110 ft 395 kts 263°
2025-12-30 02:05 27.70043 84.58659 30110 ft 400 kts 263°
2025-12-30 02:07 27.70460 84.34385 30112 ft 394 kts 288°
2025-12-30 02:09 27.77690 84.10811 30099 ft 396 kts 287°
2025-12-30 02:11 27.84497 83.88243 30106 ft 395 kts 287°
2025-12-30 02:13 27.91572 83.64630 30086 ft 399 kts 287°
2025-12-30 02:15 27.99135 83.41122 30049 ft 398 kts 290°
2025-12-30 02:17 28.07147 83.17871 30031 ft 397 kts 290°
2025-12-30 02:19 28.15127 82.94452 30025 ft 399 kts 290°
2025-12-30 02:20 28.22077 82.73938 30023 ft 399 kts 290°
2025-12-30 02:23 28.30964 82.47526 30021 ft 397 kts 290°
2025-12-30 02:25 28.38784 82.24117 30035 ft 398 kts 290°
2025-12-30 02:27 28.47586 81.97592 30041 ft 399 kts 290°
2025-12-30 02:29 28.54398 81.76923 30043 ft 399 kts 290°
2025-12-30 02:31 28.62270 81.50110 30056 ft 398 kts 287°
2025-12-30 02:33 28.67696 81.28901 30063 ft 399 kts 287°
2025-12-30 02:35 28.74621 81.01682 30067 ft 397 kts 287°
2025-12-30 02:37 28.79964 80.80513 30074 ft 396 kts 287°
2025-12-30 02:39 28.86021 80.56323 30053 ft 397 kts 287°
2025-12-30 02:41 28.92040 80.32081 30064 ft 396 kts 287°
2025-12-30 02:43 28.97081 80.07698 30074 ft 396 kts 278°
2025-12-30 02:45 28.99597 79.82727 30068 ft 395 kts 278°
2025-12-30 02:47 29.02079 79.57800 30079 ft 396 kts 278°
2025-12-30 02:48 28.99515 79.36337 30082 ft 405 kts 253°
2025-12-30 02:51 28.90507 79.09110 30069 ft 406 kts 254°
2025-12-30 02:52 28.83575 78.88197 29869 ft 396 kts 254°
2025-12-30 02:55 28.75064 78.62680 25062 ft 372 kts 253°
2025-12-30 02:55 28.73227 78.57195 24049 ft 370 kts 252°
2025-12-30 02:56 28.71394 78.51732 22951 ft 368 kts 252°
2025-12-30 02:56 28.69575 78.46323 21926 ft 363 kts 252°
2025-12-30 02:57 28.67790 78.41020 20962 ft 358 kts 252°
2025-12-30 02:57 28.65135 78.33145 19612 ft 351 kts 251°
2025-12-30 02:58 28.63491 78.28296 19030 ft 316 kts 252°
2025-12-30 02:58 28.61950 78.23735 18515 ft 305 kts 252°
2025-12-30 02:59 28.61191 78.21488 18130 ft 304 kts 252°
2025-12-30 02:59 28.59680 78.17023 17358 ft 300 kts 251°
2025-12-30 03:00 28.58437 78.13359 16732 ft 297 kts 251°
2025-12-30 03:00 28.56955 78.08994 16007 ft 294 kts 251°
2025-12-30 03:01 28.55485 78.04668 15292 ft 292 kts 251°
2025-12-30 03:01 28.53153 77.97829 14798 ft 264 kts 251°
2025-12-30 03:02 28.52400 77.94505 14325 ft 257 kts 262°
2025-12-30 03:02 28.51881 77.90523 13690 ft 255 kts 263°
2025-12-30 03:03 28.51620 77.88527 13370 ft 255 kts 263°
2025-12-30 03:03 28.51084 77.84566 12740 ft 252 kts 262°
2025-12-30 03:04 28.50536 77.80639 12120 ft 250 kts 262°
2025-12-30 03:04 28.49986 77.76756 11513 ft 248 kts 262°
2025-12-30 03:04 28.49710 77.74823 11062 ft 245 kts 262°
2025-12-30 03:05 28.48582 77.66959 9102 ft 253 kts 262°
2025-12-30 03:06 28.47975 77.63052 8480 ft 252 kts 261°
2025-12-30 03:06 28.47454 77.59175 7968 ft 244 kts 269°
2025-12-30 03:07 28.47408 77.55362 7479 ft 238 kts 271°
2025-12-30 03:07 28.47400 77.53486 7233 ft 236 kts 271°
2025-12-30 03:08 28.47389 77.49774 6750 ft 234 kts 271°
2025-12-30 03:08 28.47375 77.46162 6401 ft 220 kts 271°
2025-12-30 03:09 28.47353 77.42778 5997 ft 208 kts 271°
2025-12-30 03:09 28.47973 77.38072 5453 ft 195 kts 285°
2025-12-30 03:10 28.48286 77.36598 5260 ft 190 kts 285°
2025-12-30 03:10 28.48910 77.33684 4930 ft 190 kts 286°
2025-12-30 03:11 28.49538 77.30753 4495 ft 191 kts 286°
2025-12-30 03:11 28.50152 77.27880 3992 ft 185 kts 285°
2025-12-30 03:12 28.50747 77.25099 3551 ft 175 kts 285°
2025-12-30 03:12 28.51302 77.22501 3071 ft 162 kts 285°
2025-12-30 03:13 28.51826 77.20055 2676 ft 160 kts 285°
2025-12-30 03:13 28.52348 77.17611 2232 ft 154 kts 284°
2025-12-30 03:14 28.52822 77.15400 1866 ft 141 kts 283°
2025-12-30 03:14 28.53286 77.13223 1455 ft 142 kts 283°
2025-12-30 03:15 28.53754 77.11039 1076 ft 142 kts 283°
2025-12-30 03:15 28.54222 77.08846 769 ft 138 kts 283°
2025-12-30 03:16 28.54547 77.07327 763 ft 50 kts 283°
2025-12-30 03:16 28.54648 77.06882 763 ft 13 kts 304°
2025-12-30 03:16 28.54728 77.06860 768 ft 11 kts
2025-12-30 03:17 28.54924 77.06910 767 ft 13 kts 14°
2025-12-30 03:18 28.55111 77.06962 770 ft 10 kts 13°
2025-12-30 03:18 28.55230 77.06995 776 ft 9 kts 14°
2025-12-30 03:19 28.55282 77.07097 777 ft 9 kts 101°
2025-12-30 03:19 28.55250 77.07249 777 ft 11 kts 104°
2025-12-30 03:20 28.55212 77.07410 777 ft 11 kts 105°
2025-12-30 03:20 28.55193 77.07492 777 ft 11 kts 105°
2025-12-30 03:20 28.55182 77.07632 777 ft 8 kts 44°
2025-12-30 03:21 28.55369 77.07692 778 ft 10 kts 14°
2025-12-30 03:22 28.55579 77.07752 778 ft 10 kts 14°
2025-12-30 03:22 28.55632 77.07794 778 ft 9 kts 64°
2025-12-30 03:23 28.55621 77.07928 778 ft 9 kts 88°
2025-12-30 03:23 28.55676 77.08061 778 ft 10 kts 60°
2025-12-30 03:23 28.55708 77.08124 778 ft 5 kts 59°
2025-12-30 03:24 28.55725 77.08196 778 ft 4 kts 95°
2025-12-30 03:25 28.55714 77.08249 778 ft 2 kts 103°
2025-12-30 03:25 28.55713 77.08254 778 ft 0 kts 103°